Terug naar catalogus

STRAND 1

ActiefWetenschapSSO
NORAD 39090·PAYLOAD·🇬🇧 United Kingdom

Gelanceerd Feb 25, 2013 vanaf Satish Dhawan Space Centre

Loading…

Volgende Passages (komende 24 uur)

TLE

VersSource: Space-Track

Epoch: Sep 14, 2026, 10:46 UTC

1 39090U 13009E   26257.44890170  .00000177  00000-0  73725-4 0  9992
2 39090  98.3970  75.5185 0008004 331.4695  28.6053 14.37206466709888

Volg STRAND 1 in realtime met AllMySat

Download on the App Store